This is the latest recevied weather packets stored in our database for station/object SR6WVX. If no packets are shown the sender has not sent any weather packets the latest 10 day(s).
| Time | Temp. | Humidity | Pressure | Rain* | Wind** | Luminosity | Snow |
|---|---|---|---|---|---|---|---|
| 1777760643 | 5.56° C | 73% | 1013 hPa | 0 mm | - | - | - |
| 1777760343 | 6.11° C | 73% | 1013 hPa | 0 mm | - | - | - |
| 1777760043 | 6.11° C | 73% | 1013 hPa | 0 mm | - | - | - |
| 1777759742 | 6.11° C | 73% | 1013 hPa | 0 mm | - | - | - |
| 1777759142 | 6.11° C | 72% | 1013 hPa | 0 mm | - | - | - |
| 1777758841 | 6.11° C | 72% | 1013.1 hPa | 0 mm | - | - | - |
| 1777758541 | 6.11° C | 71% | 1013 hPa | 0 mm | - | - | - |
| 1777758241 | 6.11° C | 71% | 1013 hPa | 0 mm | - | - | - |
| 1777757941 | 6.11° C | 70% | 1012.9 hPa | 0 mm | - | - | - |
| 1777757640 | 6.11° C | 69% | 1012.9 hPa | 0 mm | - | - | - |
| 1777757340 | 6.67° C | 68% | 1012.9 hPa | 0 mm | - | - | - |
| 1777757040 | 6.67° C | 67% | 1013.1 hPa | 0 mm | - | - | - |
| 1777756740 | 6.67° C | 67% | 1013.1 hPa | 0 mm | - | - | - |
| 1777756139 | 6.67° C | 65% | 1013 hPa | 0 mm | - | - | - |
| 1777755839 | 7.22° C | 64% | 1013.2 hPa | 0 mm | - | - | - |
| 1777755539 | 7.22° C | 64% | 1013.4 hPa | 0 mm | - | - | - |
| 1777754338 | 7.78° C | 61% | 1013.3 hPa | 0 mm | - | - | - |
| 1777753137 | 8.33° C | 58% | 1013.2 hPa | 0 mm | - | - | - |
| 1777752236 | 8.89° C | 56% | 1013.5 hPa | 0 mm | - | - | - |
| 1777751935 | 9.44° C | 56% | 1013.6 hPa | 0 mm | - | - | - |
| 1777751635 | 8.89° C | 55% | 1013.5 hPa | 0 mm | - | - | - |
| 1777751335 | 8.89° C | 54% | 1013.5 hPa | 0 mm | - | - | - |
| 1777751035 | 9.44° C | 53% | 1013.4 hPa | 0 mm | - | - | - |
| 1777750734 | 10° C | 53% | 1013.4 hPa | 0 mm | - | - | - |
| 1777750134 | 10° C | 50% | 1013.4 hPa | 0 mm | - | - | - |
* Rain latest hour (hover to see other rain measurements)
** Current wind speed in m/s (hover to see current wind gust speed)